Back to catalog

FALCON HEAVY R/B

AliveHEO
NORAD 57480·ROCKET BODY·🇺🇸 United States

Launched Jul 29, 2023 from Cape Canaveral Space Force Station

Loading…

Next Passes (next 24 hours)

TLE

FreshSource: Space-Track

Epoch: Sep 14, 2026, 00:38 UTC

1 57480U 23108B   26257.02706711 -.00000143  00000-0  00000-0 0  9993
2 57480  11.5095  85.0614 4925890  48.1999 344.7498  1.84352771 21086

Track FALCON HEAVY R/B in real time with AllMySat

Download on the App Store